Time,TemperatureF,DewpointF,PressureIn,WindDirection,WindDirectionDegrees,WindSpeedMPH,WindSpeedGustMPH,Humidity,HourlyPrecipIn,Conditions,Clouds,dailyrainin,SolarRadiationWatts/m^2,SoftwareType,DateUTC
2013-02-15 00:01:00,39.0,37.0,-100.00,SSE,161,1.0,4.0,90,0.00,,,0.00,0.000000,,2013-02-15 09:01:00,
2013-02-15 00:12:00,39.0,37.0,-100.00,SSE,161,1.0,4.0,90,0.00,,,0.00,0.000000,,2013-02-15 09:12:00,
2013-02-15 00:21:00,39.0,37.0,-100.00,SSE,161,1.0,4.0,90,0.00,,,0.00,0.000000,,2013-02-15 09:21:00,
2013-02-15 00:42:00,41.0,35.0,-100.00,NW,310,5.0,13.0,79,0.00,,,0.00,0.000000,,2013-02-15 09:42:00,
2013-02-15 00:52:00,41.0,35.0,-100.00,NW,310,5.0,13.0,79,0.00,,,0.00,0.000000,,2013-02-15 09:52:00,
2013-02-15 01:01:00,41.0,35.0,-100.00,NW,310,5.0,13.0,79,0.00,,,0.00,0.000000,,2013-02-15 10:01:00,
2013-02-15 01:11:00,41.0,35.0,-100.00,NW,310,5.0,13.0,79,0.00,,,0.00,0.000000,,2013-02-15 10:11:00,
2013-02-15 01:21:00,41.0,35.0,-100.00,NW,310,5.0,13.0,79,0.00,,,0.00,0.000000,,2013-02-15 10:21:00,
2013-02-15 01:42:00,39.0,35.0,-100.00,NW,320,6.0,13.0,86,0.00,,,0.00,0.000000,,2013-02-15 10:42:00,
2013-02-15 01:52:00,39.0,35.0,-100.00,NW,320,6.0,13.0,86,0.00,,,0.00,0.000000,,2013-02-15 10:52:00,
2013-02-15 02:01:00,39.0,35.0,-100.00,NW,320,6.0,13.0,86,0.00,,,0.00,0.000000,,2013-02-15 11:01:00,
2013-02-15 02:11:00,39.0,35.0,-100.00,NW,320,6.0,13.0,86,0.00,,,0.00,0.000000,,2013-02-15 11:11:00,
2013-02-15 02:22:00,39.0,35.0,-100.00,NW,320,6.0,13.0,86,0.00,,,0.00,0.000000,,2013-02-15 11:22:00,
2013-02-15 02:42:00,37.0,37.0,-100.00,SE,128,2.0,5.0,100,0.01,,,0.01,0.000000,,2013-02-15 11:42:00,
2013-02-15 02:52:00,37.0,37.0,-100.00,SE,128,2.0,5.0,100,0.01,,,0.01,0.000000,,2013-02-15 11:52:00,
2013-02-15 03:01:00,37.0,37.0,-100.00,SE,128,2.0,5.0,100,0.01,,,0.01,0.000000,,2013-02-15 12:01:00,
2013-02-15 03:11:00,37.0,37.0,-100.00,SE,128,2.0,5.0,100,0.01,,,0.01,0.000000,,2013-02-15 12:11:00,
2013-02-15 03:21:00,37.0,37.0,-100.00,SE,128,2.0,5.0,100,0.01,,,0.01,0.000000,,2013-02-15 12:21:00,
2013-02-15 03:42:00,36.0,36.0,-100.00,North,1,1.0,3.0,100,0.05,,,0.06,0.000000,,2013-02-15 12:42:00,
2013-02-15 03:52:00,36.0,36.0,-100.00,North,1,1.0,3.0,100,0.05,,,0.06,0.000000,,2013-02-15 12:52:00,
2013-02-15 04:02:00,36.0,36.0,-100.00,North,1,1.0,3.0,100,0.05,,,0.06,0.000000,,2013-02-15 13:02:00,
2013-02-15 04:11:00,36.0,36.0,-100.00,North,1,1.0,3.0,100,0.05,,,0.06,0.000000,,2013-02-15 13:11:00,
2013-02-15 04:21:00,36.0,36.0,-100.00,North,1,1.0,3.0,100,0.05,,,0.06,0.000000,,2013-02-15 13:21:00,
2013-02-15 04:42:00,34.0,34.0,-100.00,South,180,1.0,3.0,100,-99.99,,,0.04,0.000000,,2013-02-15 13:42:00,
2013-02-15 04:52:00,34.0,34.0,-100.00,South,180,1.0,3.0,100,-99.99,,,0.04,0.000000,,2013-02-15 13:52:00,
2013-02-15 05:01:00,34.0,34.0,-100.00,South,180,1.0,3.0,100,-99.99,,,0.04,0.000000,,2013-02-15 14:01:00,
2013-02-15 05:11:00,34.0,34.0,-100.00,South,180,1.0,3.0,100,-99.99,,,0.04,0.000000,,2013-02-15 14:11:00,
2013-02-15 05:21:00,34.0,34.0,-100.00,South,180,1.0,3.0,100,-99.99,,,0.04,0.000000,,2013-02-15 14:21:00,
2013-02-15 05:42:00,34.0,34.0,-100.00,South,175,1.0,2.0,100,-99.99,,,0.04,0.000000,,2013-02-15 14:42:00,
2013-02-15 05:52:00,34.0,34.0,-100.00,South,175,1.0,2.0,100,-99.99,,,0.04,0.000000,,2013-02-15 14:52:00,
2013-02-15 06:01:00,34.0,34.0,-100.00,South,175,1.0,2.0,100,-99.99,,,0.04,0.000000,,2013-02-15 15:01:00,
2013-02-15 06:11:00,34.0,34.0,-100.00,South,175,1.0,2.0,100,-99.99,,,0.04,0.000000,,2013-02-15 15:11:00,
2013-02-15 06:21:00,34.0,34.0,-100.00,South,175,1.0,2.0,100,-99.99,,,0.04,0.000000,,2013-02-15 15:21:00,
2013-02-15 06:42:00,32.0,32.0,-100.00,South,190,0.0,2.0,100,0.00,,,0.04,0.000000,,2013-02-15 15:42:00,
2013-02-15 06:52:00,32.0,32.0,-100.00,South,190,0.0,2.0,100,0.00,,,0.04,0.000000,,2013-02-15 15:52:00,
2013-02-15 07:01:00,32.0,32.0,-100.00,South,190,0.0,2.0,100,0.00,,,0.04,0.000000,,2013-02-15 16:01:00,
2013-02-15 07:11:00,32.0,32.0,-100.00,South,190,0.0,2.0,100,0.00,,,0.04,0.000000,,2013-02-15 16:11:00,
2013-02-15 07:21:00,32.0,32.0,-100.00,South,190,0.0,2.0,100,0.00,,,0.04,0.000000,,2013-02-15 16:21:00,
2013-02-15 07:43:00,32.0,32.0,-100.00,WNW,291,0.0,0.0,100,-99.99,,,0.00,0.000000,,2013-02-15 16:43:00,
2013-02-15 07:52:00,32.0,32.0,-100.00,WNW,291,0.0,0.0,100,-99.99,,,0.00,0.000000,,2013-02-15 16:52:00,
2013-02-15 08:01:00,32.0,32.0,-100.00,WNW,291,0.0,0.0,100,-99.99,,,0.00,0.000000,,2013-02-15 17:01:00,
2013-02-15 08:11:00,32.0,32.0,-100.00,WNW,291,0.0,0.0,100,-99.99,,,0.00,0.000000,,2013-02-15 17:11:00,
2013-02-15 08:21:00,32.0,32.0,-100.00,WNW,291,0.0,0.0,100,-99.99,,,0.00,0.000000,,2013-02-15 17:21:00,
2013-02-15 08:42:00,32.0,32.0,-100.00,NW,304,0.0,0.0,100,0.00,,,-99.99,0.000000,,2013-02-15 17:42:00,
2013-02-15 08:52:00,32.0,32.0,-100.00,NW,304,0.0,0.0,100,0.00,,,-99.99,0.000000,,2013-02-15 17:52:00,
2013-02-15 09:01:00,32.0,32.0,-100.00,NW,304,0.0,0.0,100,0.00,,,-99.99,0.000000,,2013-02-15 18:01:00,
2013-02-15 09:11:00,32.0,32.0,-100.00,NW,304,0.0,0.0,100,0.00,,,-99.99,0.000000,,2013-02-15 18:11:00,
2013-02-15 09:21:00,32.0,32.0,-100.00,NW,304,0.0,0.0,100,0.00,,,-99.99,0.000000,,2013-02-15 18:21:00,
2013-02-15 09:42:00,32.0,32.0,-100.00,WNW,301,0.0,0.0,100,0.00,,,-99.99,3.000000,,2013-02-15 18:42:00,
2013-02-15 09:52:00,32.0,32.0,-100.00,WNW,301,0.0,0.0,100,0.00,,,-99.99,3.000000,,2013-02-15 18:52:00,
2013-02-15 10:01:00,32.0,32.0,-100.00,WNW,301,0.0,0.0,100,0.00,,,-99.99,3.000000,,2013-02-15 19:01:00,
2013-02-15 10:11:00,32.0,32.0,-100.00,WNW,301,0.0,0.0,100,0.00,,,-99.99,3.000000,,2013-02-15 19:11:00,
2013-02-15 10:21:00,32.0,32.0,-100.00,WNW,301,0.0,0.0,100,0.00,,,-99.99,3.000000,,2013-02-15 19:21:00,
2013-02-15 11:42:00,32.0,32.0,-100.00,NW,307,0.0,0.0,100,-99.99,,,0.00,10.000000,,2013-02-15 20:42:00,
2013-02-15 11:52:00,32.0,32.0,-100.00,NW,307,0.0,0.0,100,-99.99,,,0.00,10.000000,,2013-02-15 20:52:00,
2013-02-15 12:01:00,32.0,32.0,-100.00,NW,307,0.0,0.0,100,-99.99,,,0.00,10.000000,,2013-02-15 21:01:00,
2013-02-15 12:11:00,32.0,32.0,-100.00,NW,307,0.0,0.0,100,-99.99,,,0.00,10.000000,,2013-02-15 21:11:00,
2013-02-15 12:21:00,32.0,32.0,-100.00,NW,307,0.0,0.0,100,-99.99,,,0.00,10.000000,,2013-02-15 21:21:00,
2013-02-15 12:42:00,32.0,32.0,-100.00,WNW,292,0.0,0.0,100,-99.99,,,-99.99,14.000000,,2013-02-15 21:42:00,
2013-02-15 12:52:00,32.0,32.0,-100.00,WNW,292,0.0,0.0,100,-99.99,,,-99.99,14.000000,,2013-02-15 21:52:00,
2013-02-15 13:02:00,32.0,32.0,-100.00,WNW,292,0.0,0.0,100,-99.99,,,-99.99,14.000000,,2013-02-15 22:02:00,
2013-02-15 13:11:00,32.0,32.0,-100.00,WNW,292,0.0,0.0,100,-99.99,,,-99.99,14.000000,,2013-02-15 22:11:00,
2013-02-15 13:21:00,32.0,32.0,-100.00,WNW,292,0.0,0.0,100,-99.99,,,-99.99,14.000000,,2013-02-15 22:21:00,
2013-02-15 13:42:00,32.0,32.0,-100.00,West,273,0.0,2.0,100,0.06,,,-99.99,30.000000,,2013-02-15 22:42:00,
2013-02-15 13:52:00,32.0,32.0,-100.00,West,273,0.0,2.0,100,0.06,,,-99.99,30.000000,,2013-02-15 22:52:00,
2013-02-15 14:02:00,32.0,32.0,-100.00,West,273,0.0,2.0,100,0.06,,,-99.99,30.000000,,2013-02-15 23:02:00,
2013-02-15 14:11:00,32.0,32.0,-100.00,West,273,0.0,2.0,100,0.06,,,-99.99,30.000000,,2013-02-15 23:11:00,
2013-02-15 14:21:00,32.0,32.0,-100.00,West,273,0.0,2.0,100,0.06,,,-99.99,30.000000,,2013-02-15 23:21:00,
2013-02-15 14:42:00,32.0,32.0,-100.00,SW,223,1.0,4.0,100,0.02,,,0.04,29.000000,,2013-02-15 23:42:00,
2013-02-15 14:52:00,32.0,32.0,-100.00,SW,223,1.0,4.0,100,0.02,,,0.04,29.000000,,2013-02-15 23:52:00,
2013-02-15 15:02:00,32.0,32.0,-100.00,SW,223,1.0,4.0,100,0.02,,,0.04,29.000000,,2013-02-16 00:02:00,
2013-02-15 15:11:00,32.0,32.0,-100.00,SW,223,1.0,4.0,100,0.02,,,0.04,29.000000,,2013-02-16 00:11:00,
2013-02-15 15:21:00,32.0,32.0,-100.00,SW,223,1.0,4.0,100,0.02,,,0.04,29.000000,,2013-02-16 00:21:00,
2013-02-15 15:42:00,34.0,34.0,-100.00,South,180,1.0,3.0,100,-99.99,,,0.05,27.000000,,2013-02-16 00:42:00,
2013-02-15 15:52:00,34.0,34.0,-100.00,South,180,1.0,3.0,100,-99.99,,,0.05,27.000000,,2013-02-16 00:52:00,
2013-02-15 16:02:00,34.0,34.0,-100.00,South,180,1.0,3.0,100,-99.99,,,0.05,27.000000,,2013-02-16 01:02:00,
2013-02-15 16:11:00,34.0,34.0,-100.00,South,180,1.0,3.0,100,-99.99,,,0.05,27.000000,,2013-02-16 01:11:00,
2013-02-15 16:21:00,34.0,34.0,-100.00,South,180,1.0,3.0,100,-99.99,,,0.05,27.000000,,2013-02-16 01:21:00,
2013-02-15 16:42:00,32.0,32.0,-100.00,South,171,1.0,4.0,100,-99.99,,,0.04,8.000000,,2013-02-16 01:42:00,
2013-02-15 16:52:00,32.0,32.0,-100.00,South,171,1.0,4.0,100,-99.99,,,0.04,8.000000,,2013-02-16 01:52:00,
2013-02-15 17:01:00,32.0,32.0,-100.00,South,171,1.0,4.0,100,-99.99,,,0.04,8.000000,,2013-02-16 02:01:00,
2013-02-15 17:11:00,32.0,32.0,-100.00,South,171,1.0,4.0,100,-99.99,,,0.04,8.000000,,2013-02-16 02:11:00,
2013-02-15 17:21:00,32.0,32.0,-100.00,South,171,1.0,4.0,100,-99.99,,,0.04,8.000000,,2013-02-16 02:21:00,
2013-02-15 17:42:00,34.0,34.0,-100.00,ESE,108,2.0,6.0,100,0.02,,,0.06,5.000000,,2013-02-16 02:42:00,
2013-02-15 17:52:00,34.0,34.0,-100.00,ESE,108,2.0,6.0,100,0.02,,,0.06,5.000000,,2013-02-16 02:52:00,
2013-02-15 18:01:00,34.0,34.0,-100.00,ESE,108,2.0,6.0,100,0.02,,,0.06,5.000000,,2013-02-16 03:01:00,
2013-02-15 18:11:00,34.0,34.0,-100.00,ESE,108,2.0,6.0,100,0.02,,,0.06,5.000000,,2013-02-16 03:11:00,
2013-02-15 18:21:00,34.0,34.0,-100.00,ESE,108,2.0,6.0,100,0.02,,,0.06,5.000000,,2013-02-16 03:21:00,
2013-02-15 18:42:00,34.0,34.0,-100.00,WNW,289,1.0,5.0,100,-99.99,,,0.01,0.000000,,2013-02-16 03:42:00,
2013-02-15 18:52:00,34.0,34.0,-100.00,WNW,289,1.0,5.0,100,-99.99,,,0.01,0.000000,,2013-02-16 03:52:00,
2013-02-15 19:01:00,34.0,34.0,-100.00,WNW,289,1.0,5.0,100,-99.99,,,0.01,0.000000,,2013-02-16 04:01:00,
2013-02-15 19:11:00,34.0,34.0,-100.00,WNW,289,1.0,5.0,100,-99.99,,,0.01,0.000000,,2013-02-16 04:11:00,
2013-02-15 19:21:00,34.0,34.0,-100.00,WNW,289,1.0,5.0,100,-99.99,,,0.01,0.000000,,2013-02-16 04:21:00,
2013-02-15 19:42:00,34.0,34.0,-100.00,SW,225,0.0,2.0,100,0.00,,,0.01,0.000000,,2013-02-16 04:42:00,
2013-02-15 19:52:00,34.0,34.0,-100.00,SW,225,0.0,2.0,100,0.00,,,0.01,0.000000,,2013-02-16 04:52:00,
2013-02-15 20:01:00,34.0,34.0,-100.00,SW,225,0.0,2.0,100,0.00,,,0.01,0.000000,,2013-02-16 05:01:00,
2013-02-15 20:11:00,34.0,34.0,-100.00,SW,225,0.0,2.0,100,0.00,,,0.01,0.000000,,2013-02-16 05:11:00,
2013-02-15 20:21:00,34.0,34.0,-100.00,SW,225,0.0,2.0,100,0.00,,,0.01,0.000000,,2013-02-16 05:21:00,
2013-02-15 20:42:00,34.0,34.0,-100.00,West,266,1.0,4.0,100,-99.99,,,0.00,0.000000,,2013-02-16 05:42:00,
2013-02-15 20:52:00,34.0,34.0,-100.00,West,266,1.0,4.0,100,-99.99,,,0.00,0.000000,,2013-02-16 05:52:00,
2013-02-15 21:01:00,34.0,34.0,-100.00,West,266,1.0,4.0,100,-99.99,,,0.00,0.000000,,2013-02-16 06:01:00,
2013-02-15 21:11:00,34.0,34.0,-100.00,West,266,1.0,4.0,100,-99.99,,,0.00,0.000000,,2013-02-16 06:11:00,
2013-02-15 21:21:00,34.0,34.0,-100.00,West,266,1.0,4.0,100,-99.99,,,0.00,0.000000,,2013-02-16 06:21:00,
2013-02-15 21:42:00,37.0,34.0,-100.00,NNW,329,3.0,12.0,87,0.00,,,-99.99,0.000000,,2013-02-16 06:42:00,
2013-02-15 21:52:00,37.0,34.0,-100.00,NNW,329,3.0,12.0,87,0.00,,,-99.99,0.000000,,2013-02-16 06:52:00,
2013-02-15 22:02:00,37.0,34.0,-100.00,NNW,329,3.0,12.0,87,0.00,,,-99.99,0.000000,,2013-02-16 07:02:00,
2013-02-15 22:11:00,37.0,34.0,-100.00,NNW,329,3.0,12.0,87,0.00,,,-99.99,0.000000,,2013-02-16 07:11:00,
2013-02-15 22:21:00,37.0,34.0,-100.00,NNW,329,3.0,12.0,87,0.00,,,-99.99,0.000000,,2013-02-16 07:21:00,
2013-02-15 22:42:00,39.0,35.0,-100.00,WNW,302,8.0,16.0,85,0.00,,,0.00,0.000000,,2013-02-16 07:42:00,
2013-02-15 22:53:00,39.0,35.0,-100.00,WNW,302,8.0,16.0,85,0.00,,,0.00,0.000000,,2013-02-16 07:53:00,
2013-02-15 23:01:00,39.0,35.0,-100.00,WNW,302,8.0,16.0,85,0.00,,,0.00,0.000000,,2013-02-16 08:01:00,
2013-02-15 23:11:00,39.0,35.0,-100.00,WNW,302,8.0,16.0,85,0.00,,,0.00,0.000000,,2013-02-16 08:11:00,
2013-02-15 23:21:00,39.0,35.0,-100.00,WNW,302,8.0,16.0,85,0.00,,,0.00,0.000000,,2013-02-16 08:21:00,
2013-02-15 23:42:00,39.0,35.0,-100.00,WNW,298,7.0,12.0,86,0.00,,,0.00,0.000000,,2013-02-16 08:42:00,
2013-02-15 23:52:00,39.0,35.0,-100.00,WNW,298,7.0,12.0,86,0.00,,,0.00,0.000000,,2013-02-16 08:52:00,